Theta_e
307 297 295 294 295 297 300 301 299 299 299 298 298 297 297 296 296 299 300 303 308 303 302 303 303 303 304 305 307 309 309 309 309 309 309 310 310 311 311 311 312 312 313 316 317 318 319 320 322 323 324 327 328 328 328 328 328 329 328 328 327 328 329 328 327 327 327 326 325 325 325 325 326 326 326 326 327 327 327 327 327 326 326 326 325 326
305 295 295 298 299 300 300 301 301 300 300 297 295 295 294 297 295 300 299 304 307 302 299 302 302 302 304 306 307 307 307 306 307 307 308 309 309 310 310 311 311 312 315 316 316 316 317 318 319 320 322 322 325 326 327 327 328 329 329 328 328 328 328 328 328 327 327 327 327 326 325 326 326 325 324 325 326 327 327 327 327 326 326 326 326 324
296 293 297 300 302 302 301 301 301 300 298 298 295 294 293 294 299 301 302 301 305 303 298 300 299 300 302 304 306 306 306 306 307 308 308 308 308 309 310 310 311 311 312 314 315 315 315 317 318 318 319 321 324 325 326 326 326 327 328 328 328 328 328 328 328 328 327 328 328 327 326 326 325 327 327 326 326 326 326 327 327 326 326 326 326 325
292 295 300 302 302 300 299 300 299 298 298 296 295 293 291 297 295 290 298 301 302 301 299 299 299 300 302 303 303 304 304 305 307 309 309 309 308 309 309 310 310 310 311 312 313 313 314 314 317 317 317 318 319 319 321 324 325 327 327 328 328 328 328 327 328 326 328 328 328 328 327 327 326 325 325 326 326 326 326 326 327 327 326 326 325 325
294 299 304 302 301 300 298 299 298 296 294 297 297 295 294 295 295 294 295 299 302 301 302 299 297 297 299 298 299 301 302 302 304 305 306 308 309 310 310 309 309 309 310 311 312 313 312 313 315 317 318 318 318 318 319 320 322 325 326 327 328 328 327 327 326 326 328 327 326 327 326 324 324 324 324 324 324 325 325 325 326 326 327 326 326 326
298 301 303 300 299 299 298 296 297 297 293 295 297 298 298 298 296 296 298 296 294 294 300 299 289 290 296 298 299 301 300 300 302 302 303 304 305 307 307 307 308 309 309 309 311 312 312 313 315 317 317 318 318 319 320 320 321 322 324 326 327 327 328 327 327 327 327 326 326 325 324 322 322 321 322 322 323 324 324 324 326 326 327 326 326 326
299 303 301 299 298 297 297 296 298 299 294 292 294 300 299 298 298 297 296 295 287 284 295 300 289 285 292 293 295 296 298 299 301 301 302 303 303 304 305 306 307 307 308 309 310 310 311 313 315 316 317 318 319 320 321 321 321 321 323 325 327 327 327 328 327 327 325 326 326 325 324 324 323 322 323 324 325 325 325 326 325 326 327 327 326 325
300 300 299 300 298 297 296 294 299 299 295 292 300 300 299 297 296 296 297 294 291 297 298 297 295 288 288 295 299 300 299 299 298 300 302 303 304 305 306 307 307 308 309 310 311 312 312 312 313 315 317 318 320 321 321 320 321 321 322 324 326 327 326 328 328 327 326 325 325 325 324 324 323 323 323 324 325 326 326 326 326 326 326 326 326 326
300 297 298 297 297 296 295 298 301 302 297 296 301 303 299 298 297 297 296 293 294 292 287 292 295 288 287 293 299 300 297 298 299 300 301 303 305 307 308 309 309 310 311 312 313 313 314 314 315 315 316 318 319 320 321 321 321 322 322 323 325 326 326 327 327 327 326 324 324 324 324 323 323 324 324 324 324 325 325 325 326 325 326 326 326 326
303 301 300 300 297 294 299 301 302 301 296 300 304 306 303 302 300 298 294 292 292 288 285 290 294 286 287 292 294 297 296 296 297 299 301 302 303 305 308 310 311 311 312 313 314 314 315 316 317 318 319 319 320 320 322 322 322 322 321 321 322 324 326 326 326 326 327 325 323 323 323 323 323 323 323 324 324 323 324 324 324 325 325 325 325 325
304 304 306 301 298 299 300 301 303 301 300 302 302 300 298 299 297 295 294 291 288 285 287 292 294 291 283 289 291 291 295 297 298 300 301 303 303 304 307 310 312 313 312 311 312 314 314 316 317 318 319 319 319 319 321 322 322 321 321 321 320 322 324 324 325 326 326 326 325 323 323 323 322 322 322 322 323 323 323 323 323 324 325 325 325 325
301 303 300 302 307 304 303 300 303 303 303 300 296 295 296 291 292 290 289 291 285 283 289 293 293 293 283 286 292 297 298 299 300 299 301 302 302 304 304 307 309 310 312 313 313 312 314 315 315 315 316 317 318 321 321 320 322 321 321 320 319 319 320 321 323 324 326 326 326 324 323 323 323 323 323 322 321 322 322 323 323 324 324 324 325 325
295 296 302 305 308 304 300 298 299 301 301 299 296 295 288 284 286 282 285 282 283 282 286 292 293 289 288 292 294 297 298 299 301 304 302 302 303 304 305 306 307 308 309 312 312 313 313 313 314 314 315 316 317 317 317 319 320 320 320 320 319 319 319 319 320 322 324 325 325 325 324 323 323 323 323 323 322 322 322 322 322 322 323 323 323 324
291 298 299 300 301 305 302 294 292 293 297 296 293 290 286 282 281 278 282 284 284 287 290 289 293 287 291 294 298 298 300 301 302 303 304 303 302 304 306 307 309 310 311 311 312 312 312 314 314 315 316 316 317 317 317 317 317 320 321 320 319 319 318 318 318 319 320 323 325 325 325 324 323 322 323 323 323 323 322 323 322 323 323 323 324 324
283 285 292 297 292 303 301 299 298 295 296 296 298 294 288 287 282 278 281 278 280 283 286 291 285 281 285 289 297 299 301 302 304 304 303 303 307 307 306 307 309 311 312 311 311 312 313 314 314 316 316 315 315 316 316 316 316 316 317 318 317 317 316 316 317 318 319 320 323 325 325 325 324 323 322 323 324 323 322 322 322 323 323 323 323 324
286 287 296 301 300 303 299 303 303 300 295 297 298 298 290 287 290 284 284 284 284 283 283 285 285 288 290 296 297 299 298 300 301 302 301 302 304 305 305 305 306 309 310 311 311 312 312 313 313 314 314 314 313 313 312 313 314 314 314 314 315 316 315 316 315 316 317 318 320 322 324 324 323 322 322 321 322 323 323 323 322 322 323 323 322 323
287 284 298 299 303 301 301 303 302 302 287 293 295 288 292 297 293 286 286 286 286 284 282 287 288 291 296 298 299 299 299 298 299 301 301 301 303 304 305 305 304 306 307 307 310 310 311 312 311 312 311 311 311 311 311 312 313 314 314 314 314 314 313 314 314 315 316 317 317 319 322 323 322 322 321 321 321 322 322 322 322 322 322 322 322 322
284 286 297 296 295 301 304 304 303 303 301 296 289 293 297 297 297 289 282 284 283 280 282 288 285 287 286 284 297 297 297 298 298 299 301 301 302 303 303 304 305 306 307 308 310 310 310 310 311 311 311 311 311 311 310 311 312 313 313 313 313 312 312 312 313 313 314 314 316 317 319 320 322 322 322 321 321 321 321 321 322 322 321 321 322 323
293 283 290 297 297 300 303 301 297 301 302 297 294 302 292 285 284 287 285 279 279 279 281 284 286 287 289 289 291 292 295 296 298 299 299 299 301 302 303 305 305 305 307 309 308 306 307 306 308 308 308 309 309 309 309 311 312 311 311 311 311 311 311 312 313 313 314 314 316 318 318 318 320 321 322 322 322 321 321 321 321 321 322 321 321 321
294 282 286 297 297 298 299 297 287 293 300 301 299 296 296 290 286 286 286 287 286 280 281 281 284 282 291 292 294 294 294 296 297 298 299 300 302 303 304 304 305 304 304 304 306 305 307 306 306 306 306 306 307 307 308 307 307 308 308 309 309 309 310 310 310 310 310 312 313 315 316 316 317 319 321 321 321 321 320 320 320 320 320 321 321 321
286 291 281 289 297 297 288 294 291 293 290 291 292 289 292 289 294 292 290 287 284 282 282 281 280 284 291 296 295 296 297 296 299 299 300 301 302 302 302 302 302 303 303 302 303 303 303 303 302 303 302 303 304 304 304 306 307 306 306 305 306 306 306 306 307 309 309 310 311 312 313 314 316 317 318 319 320 321 320 320 319 320 320 318 320 320
287 286 283 287 287 287 292 297 295 296 297 294 293 291 292 289 285 284 281 290 286 284 281 282 280 285 294 298 297 296 296 299 300 299 300 300 301 301 301 301 301 301 301 302 301 301 301 301 302 301 302 303 302 303 302 304 303 303 302 303 303 304 305 305 306 307 307 308 309 310 311 312 313 314 315 316 318 319 319 318 318 318 317 318 319 319
294 289 286 284 285 288 294 291 293 293 294 296 296 292 296 293 290 286 282 283 286 287 288 285 283 284 294 295 296 297 297 298 298 299 299 299 299 300 300 301 300 300 301 302 301 301 301 301 301 301 301 301 302 302 302 302 303 302 301 301 301 302 302 303 303 304 305 305 306 307 308 309 310 312 313 314 314 315 315 316 316 316 317 318 317 318
293 282 283 284 288 291 291 287 286 286 287 289 291 292 294 289 291 289 287 287 285 286 284 284 282 287 295 296 296 294 294 296 298 298 298 299 299 300 300 300 300 300 302 302 301 301 300 301 300 300 301 301 301 300 301 301 301 301 301 301 300 300 301 302 302 303 303 303 304 305 305 306 307 309 310 310 312 313 314 314 314 314 316 316 316 316
287 285 285 281 280 283 285 288 287 289 288 285 287 291 293 294 294 291 289 285 284 286 287 284 279 286 295 295 297 296 296 297 297 298 299 299 299 299 300 300 301 301 300 301 301 300 299 298 299 301 301 300 300 299 300 300 300 299 300 299 300 300 300 301 301 301 301 301 301 302 302 303 304 305 306 308 308 309 310 311 311 312 312 313 312 314
288 285 285 279 277 276 275 277 279 282 284 285 288 290 293 292 292 288 285 286 283 287 288 285 285 291 292 293 295 295 294 295 296 298 299 299 299 300 300 300 300 301 301 301 301 301 300 299 299 299 299 299 300 300 300 300 299 299 299 300 299 299 298 299 299 299 298 299 299 300 299 301 301 302 303 303 304 305 307 309 309 309 310 312 313 312
285 285 286 284 282 280 283 284 288 289 284 282 282 288 290 293 294 293 288 286 283 287 287 288 289 290 291 292 293 294 292 295 295 295 296 297 297 297 299 301 301 301 301 300 301 301 299 299 300 300 300 300 299 298 299 298 299 298 298 298 298 297 297 297 297 297 296 296 297 298 298 298 298 300 299 300 301 302 302 303 303 304 305 304 307 308
285 284 285 283 285 285 287 286 288 289 284 283 285 285 289 290 291 289 286 283 289 286 282 291 292 289 291 293 293 295 296 296 296 296 296 296 296 297 299 300 299 300 300 300 299 299 299 299 299 299 299 298 298 297 298 297 297 296 295 295 295 295 296 299 297 296 297 296 297 296 297 297 298 298 298 297 298 300 300 300 300 300 301 301 303 302
285 283 284 284 284 286 287 287 289 289 288 287 287 285 285 288 288 286 286 289 289 285 284 287 285 288 292 295 296 296 297 297 296 297 298 299 298 297 298 299 300 300 299 298 298 298 298 297 297 297 297 297 296 296 295 296 296 295 295 294 294 294 296 296 295 295 295 295 296 296 295 296 297 297 298 297 297 296 298 299 297 298 298 298 299 305
286 283 283 282 282 284 285 286 287 285 284 284 284 286 287 286 287 287 287 288 288 287 289 289 288 289 293 294 295 296 297 298 297 298 298 297 298 297 298 298 299 299 298 298 298 297 297 296 296 296 295 295 295 294 294 295 295 294 294 294 294 295 295 295 295 295 295 295 295 295 295 295 294 295 295 296 296 295 295 295 295 296 296 297 297 297
288 284 289 283 281 282 284 286 287 286 285 284 285 286 287 286 286 287 287 287 285 285 287 287 287 287 293 296 296 299 299 300 300 299 299 298 298 297 298 299 298 297 297 297 297 297 296 295 295 293 293 293 293 293 295 295 294 293 293 294 294 295 295 294 294 294 293 294 294 294 294 295 295 295 295 295 295 294 294 297 295 294 294 294 295 297
287 284 285 283 281 281 284 284 284 285 285 284 284 284 284 285 284 285 285 287 286 284 285 285 285 286 292 295 296 297 297 297 297 298 299 298 296 297 297 298 297 296 296 296 296 296 295 294 293 293 292 291 291 291 292 292 292 291 293 293 294 294 293 293 293 294 293 293 294 294 294 294 294 294 294 294 295 294 293 293 293 293 292 293 293 295
286 284 282 283 280 280 284 283 281 281 281 280 282 285 287 287 288 289 290 290 290 290 286 284 285 292 294 295 293 295 296 296 297 298 298 299 298 298 299 298 297 297 297 296 295 295 295 294 293 293 293 293 292 292 291 291 291 291 293 293 293 292 292 293 293 293 293 293 293 294 294 294 294 293 294 294 294 293 294 293 292 293 292 293 292 291
287 285 283 283 279 280 283 280 283 280 274 276 289 291 290 287 288 286 286 288 290 291 289 291 291 293 293 293 293 293 294 295 296 298 299 299 298 299 300 300 300 301 298 296 296 296 296 295 294 293 292 292 293 292 292 291 291 292 292 292 290 290 291 291 292 291 291 292 293 293 293 293 293 293 293 294 294 293 293 293 293 292 292 292 291 291
285 285 283 284 280 279 281 280 278 273 276 292 292 292 292 291 291 289 289 290 290 292 292 291 292 292 293 294 294 295 295 296 296 296 297 298 299 300 299 299 298 298 296 295 294 294 295 295 293 292 293 294 293 291 290 289 290 290 290 290 290 290 290 290 290 290 290 290 291 291 292 292 292 293 293 293 293 293 292 292 292 292 293 293 293 293
284 284 285 284 283 282 279 278 272 274 283 284 287 291 292 292 291 290 288 290 291 291 292 291 292 293 294 294 295 296 295 293 292 292 294 296 297 298 297 297 297 295 294 294 294 294 293 291 291 292 293 294 291 290 289 288 288 288 289 289 289 288 288 289 289 290 290 290 290 290 291 291 292 292 292 292 292 292 292 292 292 292 292 291 291 290
288 285 284 281 285 277 278 278 277 284 283 282 283 284 288 287 287 286 282 286 291 293 293 292 293 294 294 295 296 293 291 290 289 291 291 293 294 295 297 296 295 294 294 294 293 293 293 292 291 292 292 291 291 291 291 290 289 288 287 287 287 286 287 287 288 289 289 290 291 291 291 291 291 291 291 291 291 290 290 291 291 291 291 291 291 290
289 285 285 281 280 282 278 276 277 276 274 280 287 291 292 293 293 292 287 284 291 293 294 293 293 294 295 295 293 291 290 288 285 288 290 289 292 292 292 293 293 293 292 291 291 291 290 291 290 290 290 289 289 290 290 290 290 290 288 286 285 285 285 286 286 286 287 287 289 290 290 291 291 291 291 291 291 290 290 290 289 289 290 290 290 290
289 289 285 283 281 282 279 275 275 273 277 286 287 289 292 293 293 290 286 282 290 292 293 294 293 294 295 294 290 291 288 286 286 289 289 289 288 289 288 288 289 289 290 290 289 289 289 290 290 289 287 287 287 288 287 288 288 288 287 287 286 285 284 284 285 286 286 287 288 287 288 290 290 290 289 290 290 290 289 289 289 289 288 289 289 290
286 285 284 280 279 281 280 277 275 278 278 283 286 287 291 294 294 288 277 277 290 290 292 293 293 293 294 293 291 291 289 286 287 288 290 289 289 288 288 288 288 288 289 289 290 290 290 289 286 285 286 286 286 287 287 287 287 286 286 286 285 284 284 284 285 285 285 285 286 287 287 287 287 288 288 289 289 288 288 288 288 289 289 289 289 289
282 283 284 280 281 281 281 279 281 281 286 287 286 289 290 294 291 280 274 284 286 287 292 294 293 294 293 292 292 289 288 292 292 291 289 287 287 287 287 287 287 287 287 287 287 288 287 287 286 286 286 287 287 286 286 286 285 285 285 285 285 284 285 285 284 284 284 285 285 285 285 285 286 286 285 286 288 288 288 288 287 288 288 288 288 288
282 283 283 283 280 279 280 278 279 282 286 288 288 292 293 290 280 279 286 284 286 286 287 292 293 293 294 293 289 287 288 290 289 289 288 286 285 286 288 288 288 287 287 286 286 285 285 284 284 284 284 285 285 285 285 284 284 284 284 284 284 284 285 284 284 283 283 284 285 285 285 285 286 284 284 284 284 285 287 287 287 287 288 288 287 287
281 280 279 280 283 283 281 277 277 274 284 290 290 288 289 284 284 288 284 284 285 285 285 286 288 288 289 286 287 287 287 287 287 286 285 284 285 286 287 287 286 286 285 284 284 284 284 284 284 284 284 284 285 284 284 283 283 283 283 284 284 284 284 284 284 284 284 284 284 283 284 284 285 286 287 287 285 283 285 285 285 286 286 287 287 287
286 280 280 282 285 278 278 276 277 284 287 292 291 285 286 289 288 287 286 284 285 284 284 284 285 286 288 287 285 285 286 285 285 285 285 284 284 285 284 285 285 285 285 285 285 285 285 284 283 283 283 284 284 284 284 284 282 282 282 283 284 284 284 283 284 284 284 284 283 284 284 283 284 284 285 286 286 285 285 285 285 284 285 285 286 286
286 282 283 279 285 282 279 281 283 283 287 287 287 290 291 290 290 288 287 287 286 286 285 284 284 285 286 286 286 285 285 285 284 284 283 284 284 283 283 283 283 283 283 284 284 284 284 284 283 282 281 282 283 283 283 283 283 282 283 284 284 284 284 283 283 283 283 283 283 284 284 284 284 284 284 285 285 285 286 286 285 286 285 285 285 285
280 282 282 284 282 286 284 286 284 283 284 287 287 289 289 289 288 287 286 286 286 287 286 285 285 285 284 284 284 282 282 281 282 282 282 282 282 282 282 282 283 283 283 283 283 282 283 282 282 281 281 281 281 282 283 283 282 283 283 283 284 284 284 284 284 284 283 283 283 284 284 284 284 284 284 284 285 285 286 286 286 285 286 286 285 285
279 281 280 279 282 283 280 287 284 284 284 285 286 286 287 290 290 288 288 288 288 287 287 286 286 285 283 282 282 282 281 281 281 281 281 282 281 282 281 281 281 281 281 281 281 282 282 281 280 280 280 281 282 281 282 282 282 283 283 283 284 284 284 284 284 284 284 284 284 285 284 284 285 285 285 284 285 285 286 285 285 285 285 285 285 285
277 281 280 280 280 282 281 282 282 286 286 287 287 286 285 286 287 286 289 289 289 288 286 286 285 284 282 282 281 280 281 280 280 281 281 281 281 281 281 281 281 281 281 280 280 281 280 281 280 279 278 280 282 282 282 282 282 283 283 283 283 284 284 284 284 284 284 284 284 284 284 284 285 285 285 285 285 285 285 285 286 285 286 286 285 285
281 283 277 280 281 281 283 282 282 283 284 286 286 287 287 287 286 286 286 285 285 284 284 284 284 283 283 282 281 280 280 280 279 280 280 280 281 281 281 281 280 280 280 280 280 280 280 279 279 279 278 280 281 281 282 282 283 283 283 284 283 283 283 284 284 284 284 284 284 284 285 285 284 284 285 285 286 285 286 287 287 286 287 287 286 286
280 277 280 280 277 278 281 281 281 279 277 283 285 287 286 286 285 285 285 285 285 284 283 282 282 282 282 282 282 281 280 280 280 279 278 280 280 279 280 280 280 280 279 279 279 279 279 279 279 279 279 280 281 280 280 281 283 283 283 283 283 282 283 283 284 283 283 283 283 284 284 284 285 285 285 285 285 286 286 287 287 288 288 288 287 287
280 279 280 278 278 278 283 285 287 286 283 286 287 286 285 285 285 285 285 285 284 284 283 282 281 281 281 281 281 280 280 281 280 279 279 279 280 280 280 279 279 279 279 278 279 278 278 278 279 279 278 281 281 281 281 281 281 282 282 281 281 281 282 282 283 283 283 283 283 283 284 284 284 284 284 285 285 285 285 286 288 288 288 288 287 288
Wind_Speed
6 8 12 13 13 13 13 12 11 9 9 7 7 7 9 9 8 7 8 4 10 6 10 10 11 11 10 9 10 11 12 13 10 9 7 7 8 7 6 7 6 7 7 6 7 6 6 6 8 9 8 9 9 9 10 11 11 12 12 11 12 12 11 10 10 9 10 10 9 8 10 11 10 10 10 10 10 10 10 10 10 9 9 9 9 9
7 8 13 15 15 14 15 13 11 11 13 11 7 8 10 8 8 6 7 5 9 5 4 7 9 11 11 9 9 7 8 10 10 11 12 12 8 8 9 10 10 9 5 5 5 7 7 6 6 7 7 7 9 10 10 12 14 13 12 13 13 11 12 12 12 11 11 12 12 13 13 12 11 10 11 12 10 11 9 10 10 9 10 10 10 10
9 14 15 15 12 10 10 13 12 12 11 10 10 7 6 6 4 5 8 7 9 6 6 2 7 8 8 9 10 12 12 9 9 10 10 9 10 9 9 10 10 9 9 8 8 7 7 7 8 7 8 9 12 12 13 13 12 11 12 12 12 11 12 12 12 11 13 12 11 11 9 11 9 9 9 9 8 8 9 9 9 10 10 11 11 10
12 12 14 10 11 12 11 11 13 11 10 9 9 9 8 1 2 4 6 3 5 5 2 4 9 10 10 12 14 11 10 9 9 13 13 11 12 12 12 10 9 10 11 12 12 12 10 9 9 9 10 12 11 10 10 11 12 11 11 12 12 12 12 11 13 13 12 12 11 10 8 7 9 8 7 7 7 8 9 11 11 10 10 11 11 11
17 13 13 9 11 13 13 12 12 10 11 10 8 6 8 5 4 5 1 5 8 6 2 1 7 11 10 11 12 11 11 12 14 14 14 13 12 12 10 10 10 11 10 12 12 12 10 11 12 14 15 13 12 12 12 12 12 10 14 14 13 11 12 12 13 14 11 9 7 8 6 4 5 4 5 6 8 10 10 9 11 12 11 11 11 11
11 3 14 17 16 14 12 12 12 9 9 8 10 9 5 4 6 5 3 5 1 3 2 1 5 11 7 14 18 13 12 16 14 16 17 17 14 12 13 13 11 10 10 11 11 12 12 13 13 12 13 13 13 13 13 12 12 11 11 11 10 10 11 12 13 14 11 11 11 10 10 10 9 9 9 11 13 12 12 13 10 9 11 11 11 11
8 8 13 15 12 11 13 12 12 12 9 8 9 11 11 8 5 5 4 3 5 4 2 8 8 10 4 6 4 5 9 13 10 15 16 13 12 12 12 11 11 12 12 12 12 10 9 11 12 12 12 12 13 13 12 9 9 10 9 9 11 12 11 11 12 13 12 11 10 13 13 13 13 13 11 10 9 9 9 7 9 10 10 12 12 11
5 11 10 11 12 12 13 14 12 14 9 10 4 11 12 12 11 8 4 4 3 1 4 5 4 10 12 11 7 11 14 10 7 12 14 12 12 12 12 11 11 11 12 12 12 13 14 13 11 11 10 9 11 11 8 8 9 11 12 10 11 10 10 10 11 13 14 13 13 12 12 11 12 12 11 10 10 8 7 9 11 9 10 11 12 12
13 11 13 12 12 12 15 14 12 10 10 3 3 4 9 13 13 9 7 4 3 2 6 4 4 10 13 9 7 11 12 13 14 11 7 6 9 10 11 11 10 11 13 12 11 11 11 12 12 12 11 8 7 7 9 10 9 10 10 10 9 11 10 10 12 12 14 13 13 13 12 12 11 11 9 6 8 9 8 10 10 11 11 11 13 13
2 8 16 14 12 13 10 11 8 11 12 8 2 1 3 4 6 8 5 5 4 5 11 9 6 8 19 8 7 5 12 14 10 10 14 12 10 8 8 9 10 11 10 9 10 10 9 9 9 10 10 10 9 7 7 8 8 8 8 9 10 10 10 10 11 12 13 14 12 12 12 13 11 9 7 7 8 8 9 11 10 10 10 10 11 12
1 2 6 8 12 10 9 8 11 13 9 4 3 1 2 1 3 4 4 4 2 11 14 11 11 10 14 8 8 6 8 8 7 7 9 11 11 11 8 8 12 12 7 5 6 7 8 7 9 9 10 9 7 6 6 6 6 6 7 8 9 11 10 9 11 11 13 12 12 12 12 13 12 11 9 9 10 8 8 11 11 10 10 9 10 10
5 3 1 3 3 3 5 7 9 8 5 8 4 7 2 4 6 2 1 4 7 12 13 10 10 12 14 4 3 9 7 6 8 7 10 11 8 8 8 10 9 5 6 7 7 7 7 9 7 5 5 5 4 2 4 4 5 5 5 5 7 7 8 8 9 9 11 11 11 12 12 12 12 11 10 12 12 11 11 10 10 8 7 9 8 9
11 12 4 3 4 4 8 5 2 4 7 10 9 9 10 4 4 7 2 9 11 14 3 9 9 11 21 16 5 7 2 3 1 0 1 1 5 7 7 6 5 5 5 6 6 7 6 5 5 5 5 3 3 4 4 4 4 5 5 6 7 9 8 9 8 8 9 10 11 11 12 12 11 11 11 11 11 10 10 9 8 8 9 7 8 9
4 8 9 4 1 3 5 11 5 4 10 11 13 11 11 9 8 10 10 4 5 6 4 1 9 14 4 11 14 20 17 4 5 2 3 5 7 6 5 4 4 5 5 4 4 5 5 5 5 4 3 3 3 3 3 3 5 5 6 7 8 10 7 6 6 8 8 10 10 9 10 10 9 9 10 10 10 9 8 8 9 8 8 8 10 9
8 9 12 11 8 10 8 9 13 8 12 12 8 13 12 9 4 8 7 12 12 10 3 7 3 5 9 5 6 14 13 15 10 8 6 6 1 1 2 1 2 1 2 4 6 6 6 5 3 3 3 3 4 3 3 5 5 5 5 5 6 7 5 5 7 7 9 9 9 9 9 10 8 9 9 9 8 8 8 7 8 8 7 9 9 9
13 8 6 21 6 13 12 9 7 4 4 6 7 9 9 13 3 8 2 4 4 3 4 6 8 2 7 5 5 2 4 6 7 7 6 5 5 5 5 5 6 6 6 7 6 6 4 2 3 4 4 4 4 5 5 4 3 3 4 4 5 6 6 6 6 6 6 7 5 6 7 8 8 7 7 7 7 7 7 7 8 8 8 8 7 8
5 11 8 12 11 17 19 13 8 11 10 6 5 10 12 4 7 3 3 3 3 1 7 3 6 10 9 15 12 7 2 7 8 12 11 10 11 9 10 8 6 6 6 5 5 5 3 2 4 4 4 4 4 3 3 4 4 5 5 5 5 5 5 5 5 5 5 5 5 6 6 7 7 8 8 9 8 8 7 7 7 7 7 7 7 7
4 5 8 12 9 8 13 14 8 16 2 6 7 10 4 5 3 4 5 2 4 5 4 7 11 10 5 10 7 17 13 10 10 10 12 13 9 9 7 6 6 6 6 6 3 4 5 5 5 3 2 1 2 3 3 3 2 2 3 4 4 4 4 4 4 5 4 5 5 6 6 6 7 8 8 7 7 6 7 7 7 6 7 7 7 7
1 4 2 12 17 12 9 8 2 7 4 8 7 7 10 4 3 1 1 8 4 7 4 7 9 11 8 10 1 4 13 11 10 8 9 8 8 9 8 11 7 4 1 2 5 4 5 3 2 2 3 3 3 3 2 1 0 1 2 2 2 4 4 3 3 3 4 4 4 4 5 6 6 6 6 6 7 6 7 8 8 8 8 6 6 6
3 3 2 5 6 7 8 12 13 11 10 4 6 2 2 3 1 10 10 1 5 8 4 10 9 9 9 9 8 6 3 5 5 7 9 11 10 11 8 1 7 8 6 4 4 3 1 2 1 2 3 4 4 3 2 2 2 2 3 2 3 2 2 3 4 4 4 3 3 4 3 4 4 4 5 6 6 7 7 7 7 7 6 7 6 6
0 1 4 1 5 5 9 8 13 15 14 7 4 3 4 3 1 2 1 6 3 4 9 7 9 3 5 6 8 10 13 6 12 13 11 9 7 3 7 6 4 4 4 4 3 4 4 4 5 5 5 4 4 4 4 3 2 2 3 3 3 2 3 3 3 2 4 3 3 2 4 4 3 4 4 4 5 6 7 6 6 5 5 4 6 5
3 3 7 3 4 7 1 2 2 7 12 12 11 11 11 10 5 7 6 3 3 2 3 5 14 2 0 3 2 2 4 11 13 11 10 7 5 8 5 5 5 4 3 3 2 3 4 4 4 4 5 5 6 6 6 5 5 5 5 4 4 3 2 2 3 3 4 3 2 2 2 3 3 4 4 4 4 5 5 4 5 5 5 5 6 6
5 2 2 5 2 6 1 1 2 6 2 5 11 11 11 9 5 8 8 5 2 8 3 4 5 7 1 1 2 1 3 7 4 6 9 7 6 7 6 5 4 4 2 2 2 3 3 3 3 3 5 5 6 6 6 6 6 5 5 6 5 5 5 4 4 4 4 4 4 4 4 3 3 3 3 3 3 3 4 4 4 4 5 6 5 5
9 1 2 4 1 2 3 1 5 6 4 2 0 1 9 10 12 10 8 2 6 4 6 5 8 7 1 1 1 3 5 7 8 7 10 9 6 5 6 4 4 4 1 1 2 3 3 2 3 4 5 5 5 5 5 5 5 5 4 5 5 6 6 5 5 5 4 4 4 4 4 4 4 4 3 2 2 1 2 2 4 4 4 4 4 5
6 4 5 4 2 2 1 2 1 0 2 1 2 4 4 5 10 2 2 2 2 8 7 7 12 8 3 1 2 3 6 7 7 6 6 7 5 5 4 4 3 2 2 2 2 3 4 4 4 3 4 5 4 4 4 4 5 4 4 5 5 5 5 5 5 5 4 4 3 3 3 3 4 4 4 4 3 3 2 2 2 2 4 4 4 4
7 4 9 10 11 9 9 12 12 10 9 3 1 3 6 6 5 3 9 4 10 8 13 9 8 9 2 3 3 2 6 6 6 6 6 6 5 4 4 3 2 1 0 2 2 2 4 4 3 4 5 4 4 4 4 5 5 5 5 5 5 6 6 5 5 4 4 3 3 3 3 2 3 3 4 4 4 4 4 4 3 3 3 2 3 3
2 2 7 10 12 12 8 4 2 4 4 4 3 9 10 12 12 10 0 4 10 3 12 9 9 9 5 1 0 2 4 6 5 5 6 6 5 5 4 2 0 1 1 2 2 1 2 5 5 4 5 5 5 5 5 5 5 5 5 6 6 5 5 5 5 5 4 4 3 3 4 4 4 4 4 4 5 5 5 5 5 5 4 4 2 2
1 4 8 6 13 11 10 5 1 3 2 5 11 11 11 12 13 14 12 7 6 3 10 4 5 8 14 5 4 2 5 5 4 4 4 4 4 4 2 1 2 1 3 5 4 4 4 4 5 5 5 6 6 6 6 5 5 5 5 6 6 6 5 6 5 5 5 5 5 5 5 4 3 3 3 4 4 4 4 4 4 4 4 4 4 4
5 7 8 6 10 8 9 8 5 1 1 4 9 7 8 11 11 14 13 13 7 9 8 2 2 4 10 3 3 2 0 3 2 1 1 1 1 3 3 2 2 4 5 5 5 5 5 5 5 6 7 7 6 7 6 6 5 5 5 5 6 6 6 5 5 5 5 5 6 6 5 5 4 3 2 2 2 3 4 4 5 4 4 4 4 5
0 3 2 3 6 7 7 8 6 7 6 3 4 5 7 7 11 12 13 12 13 13 11 12 8 12 12 8 4 5 3 3 3 1 3 3 1 3 4 3 2 3 4 6 5 5 5 5 6 6 7 8 8 8 7 7 6 6 6 6 6 6 7 6 6 6 7 7 6 5 5 5 5 5 5 5 5 4 4 4 4 4 4 4 4 4
4 3 5 1 1 7 8 7 7 7 8 12 8 6 5 5 7 9 8 9 8 8 10 11 12 15 13 9 9 10 8 4 8 13 8 4 3 4 4 3 4 4 4 5 5 5 6 6 6 6 7 6 7 6 6 5 5 4 5 6 6 7 6 5 6 6 6 7 6 6 6 6 6 5 6 5 5 5 5 5 5 4 4 4 4 5
3 1 3 2 4 8 7 7 8 8 9 12 12 9 8 7 7 6 10 8 9 11 9 9 11 14 14 12 7 13 14 14 14 15 15 6 2 5 4 4 4 4 4 6 6 6 7 6 5 5 4 4 4 4 4 4 4 4 6 6 7 7 6 5 5 6 6 6 6 6 7 7 6 7 6 6 6 5 5 5 5 5 4 4 5 5
5 3 3 3 7 9 11 5 5 7 5 11 14 13 13 13 14 12 13 12 14 10 11 13 15 13 15 9 6 13 17 16 13 11 11 13 7 1 2 6 6 5 7 10 9 8 7 6 5 4 3 1 2 3 4 4 4 6 6 7 6 6 6 6 6 6 7 6 6 7 8 7 7 7 7 7 6 5 5 5 5 5 5 5 5 4
5 4 3 3 3 5 8 3 3 4 12 8 6 16 17 18 17 19 17 16 16 13 12 11 14 11 9 11 14 18 19 12 9 10 10 10 10 4 8 6 3 3 3 5 6 8 8 6 4 4 3 2 1 1 0 2 5 6 5 5 5 5 5 5 6 6 6 6 7 7 7 7 7 8 7 6 7 6 6 6 6 5 5 4 5 4
7 6 6 3 2 5 6 1 3 12 9 1 6 12 16 19 19 19 18 19 17 16 16 16 16 14 15 15 15 16 16 8 7 4 3 6 10 10 11 10 9 7 8 7 7 5 5 5 3 2 1 1 1 1 1 3 4 4 5 5 6 6 6 5 5 5 5 5 5 6 7 7 6 7 7 7 7 7 6 6 6 6 5 5 6 6
7 8 4 3 2 3 3 2 7 4 2 3 6 5 9 14 15 15 18 19 20 19 17 17 17 17 16 16 15 14 13 2 6 4 3 3 3 8 9 8 7 9 10 8 8 6 5 4 4 2 0 1 3 4 5 4 4 4 4 2 4 5 6 6 6 6 6 6 6 5 6 6 6 7 7 7 7 7 8 7 6 7 7 6 6 4
9 4 5 4 6 6 4 8 10 5 11 6 3 4 7 10 10 15 13 14 15 14 14 15 16 17 17 17 18 6 5 5 4 1 4 1 2 3 8 7 8 8 9 8 7 6 5 4 3 2 1 3 3 3 4 3 2 3 3 4 4 4 4 5 5 6 7 7 8 8 7 7 7 7 7 7 8 8 8 8 8 7 6 7 7 7
6 9 5 6 3 8 7 8 5 4 8 9 15 15 5 6 6 7 8 7 4 8 12 14 15 16 17 16 9 7 6 7 4 5 1 3 5 8 6 9 7 7 5 5 5 4 4 3 3 2 2 2 2 2 2 2 2 2 3 3 3 4 4 5 5 4 4 5 6 8 8 8 7 8 8 8 9 10 9 6 5 6 6 6 8 9
6 7 5 9 5 4 7 9 8 7 8 10 12 6 7 6 6 4 3 11 8 13 9 11 14 17 15 9 5 9 8 9 8 7 3 4 5 6 10 7 7 6 5 4 4 3 3 2 2 2 3 3 3 3 3 2 2 3 3 3 3 3 4 4 4 4 4 4 2 4 5 6 6 6 7 7 7 8 10 11 10 9 6 6 6 7
10 7 6 9 10 10 7 8 8 4 8 7 5 5 8 9 6 7 8 7 13 6 7 9 12 11 8 7 11 11 12 11 10 7 6 6 7 5 7 7 6 5 5 4 2 1 1 2 3 3 3 4 2 1 2 2 3 4 4 4 2 4 4 4 4 4 3 2 2 1 2 3 4 5 5 7 8 7 5 6 8 10 10 10 8 9
6 6 10 15 11 13 15 10 6 7 6 7 2 3 6 8 8 8 12 10 2 2 1 7 9 11 7 9 10 10 5 3 7 11 7 6 8 6 5 5 6 6 5 4 3 2 3 2 3 3 2 2 1 1 1 2 3 3 3 4 5 5 4 4 5 5 4 4 4 4 4 3 2 3 4 5 6 8 8 6 6 8 8 9 9 9
6 3 2 8 12 12 10 11 10 8 5 2 1 8 7 8 6 13 2 0 1 4 4 3 5 3 8 8 5 4 3 7 13 10 8 5 6 5 5 5 5 4 2 3 4 3 3 3 4 3 3 2 3 2 2 2 3 2 2 4 4 4 4 4 5 4 5 6 6 6 5 5 5 3 3 4 4 4 7 7 6 6 8 8 8 9
9 7 6 8 5 6 6 8 6 8 3 8 6 1 3 7 3 4 4 4 4 2 6 6 6 5 11 10 10 12 11 10 10 7 5 5 5 5 5 5 5 4 3 3 3 3 4 4 4 4 5 5 5 5 4 5 5 5 4 6 5 4 4 4 4 4 4 5 5 5 6 6 6 7 6 6 4 4 5 6 5 6 6 7 8 8
7 5 4 6 7 5 8 8 7 6 2 5 10 8 4 3 2 4 7 5 2 4 4 7 6 5 9 13 11 9 8 9 7 7 6 5 5 4 4 3 4 3 2 1 1 1 2 2 3 4 5 5 5 5 5 5 5 4 5 5 4 3 4 4 4 4 4 5 5 5 5 5 5 6 6 7 8 7 6 6 5 5 6 6 7 7
10 9 4 6 7 9 6 6 2 3 6 2 1 3 5 5 5 4 6 8 9 5 4 8 6 5 7 10 10 10 8 5 6 6 7 6 7 6 5 5 4 3 2 1 0 0 0 0 2 3 4 5 5 5 4 4 4 5 6 6 4 5 5 4 4 4 4 5 5 5 5 5 5 6 6 6 6 7 7 7 6 7 5 4 6 6
3 0 2 1 3 1 2 2 3 2 1 2 2 1 5 4 4 5 5 8 4 6 7 11 7 7 6 5 8 4 5 5 6 4 4 3 4 4 4 3 2 1 1 0 0 1 1 1 2 3 4 5 4 4 4 4 4 5 6 5 5 6 6 5 6 6 5 5 5 5 5 6 6 5 6 6 6 7 7 7 7 7 7 7 7 7
2 1 1 3 1 4 7 8 6 6 2 3 4 3 3 7 6 7 5 5 6 7 7 6 9 7 5 5 6 6 5 5 5 3 4 3 3 2 4 4 3 3 3 2 3 2 1 1 2 4 5 5 5 4 4 4 3 3 4 5 6 6 6 6 7 8 7 7 8 7 5 7 7 7 6 5 6 7 7 7 7 7 7 7 7 7
3 3 2 4 4 9 5 0 4 7 6 5 7 7 5 4 4 5 7 7 7 7 9 8 7 7 5 6 6 6 5 5 5 3 4 3 4 3 4 4 4 3 4 4 4 2 1 0 1 3 4 5 7 5 4 4 4 4 4 4 5 6 6 7 8 9 10 10 8 8 7 7 10 10 8 7 6 7 7 6 7 8 8 8 7 8
3 6 5 5 6 4 2 0 3 8 4 3 2 2 6 7 7 7 7 9 9 10 8 6 6 6 5 6 5 5 5 4 4 4 4 3 2 3 4 4 5 5 4 3 3 2 3 3 2 3 4 6 5 6 6 6 5 5 6 5 5 6 7 9 10 10 11 10 9 10 9 8 8 8 8 9 8 7 8 9 8 8 10 8 7 8
4 6 1 4 2 5 8 4 5 3 2 3 5 6 5 6 10 8 7 8 8 9 8 8 5 5 6 6 6 7 6 5 5 4 4 4 5 4 5 4 4 4 4 4 3 3 3 2 2 4 5 5 5 5 5 6 7 7 6 6 5 5 7 9 11 11 11 9 8 9 9 9 9 9 9 9 10 10 10 10 13 12 10 12 10 14
6 4 5 6 6 4 2 5 9 4 1 4 7 5 7 7 10 11 9 9 7 7 8 8 6 3 3 2 4 6 6 5 5 4 4 4 4 5 5 5 4 4 4 4 2 2 2 3 3 4 5 7 6 7 6 6 6 6 5 4 4 5 6 7 9 10 11 11 9 9 9 9 10 9 9 9 10 10 11 13 11 13 18 19 18 16
Wind_Direction
158 190 192 198 207 202 208 219 220 225 254 236 227 228 216 216 233 233 230 195 185 198 214 222 238 249 249 226 219 225 230 243 245 241 235 218 220 229 241 249 243 233 230 219 211 210 216 204 190 184 178 182 188 193 190 191 195 191 190 183 190 193 190 183 185 182 181 189 198 208 210 214 207 208 209 211 209 208 207 202 201 198 200 201 200 202
194 201 210 206 203 195 199 210 220 226 231 247 252 233 235 219 229 220 232 166 178 191 228 215 235 236 241 248 249 248 238 231 227 233 236 241 229 217 221 230 236 240 242 240 226 226 219 219 196 185 182 181 188 203 196 197 199 196 190 190 194 186 190 191 188 186 189 194 195 194 204 204 205 205 206 212 209 210 207 203 200 200 202 200 199 201
198 209 211 206 198 205 205 204 220 226 231 233 241 253 252 236 237 225 220 199 172 191 236 272 282 265 251 245 235 231 234 239 236 234 237 230 233 235 224 222 225 225 229 230 225 224 222 217 210 195 198 201 201 199 198 205 200 196 194 199 193 188 189 192 189 188 198 198 202 199 203 198 208 213 213 214 208 203 208 208 204 203 203 200 203 198
198 223 217 199 201 208 212 202 204 221 237 232 226 237 239 252 226 228 216 248 222 195 163 190 244 258 261 260 261 253 248 245 237 237 238 230 233 232 233 227 223 220 222 226 225 228 224 219 213 212 214 215 213 213 210 205 202 199 200 201 196 193 188 190 194 198 202 201 203 208 206 200 201 203 205 208 206 207 206 210 206 208 203 201 203 200
200 207 185 201 209 208 209 205 205 205 221 227 237 232 236 227 245 250 264 214 230 241 193 333 283 269 255 260 258 252 246 244 239 243 242 238 233 234 237 239 232 233 222 225 228 228 223 221 217 213 216 218 217 218 218 211 203 203 202 201 195 191 190 192 195 197 196 193 199 204 213 207 211 224 195 195 213 210 209 207 206 209 202 201 202 201
219 138 163 199 205 201 207 210 209 198 221 222 224 231 245 218 241 259 259 317 315 285 183 158 292 262 227 233 238 238 233 232 231 236 236 234 234 232 235 235 235 238 237 233 228 223 220 223 225 221 219 216 217 220 219 215 213 208 205 198 193 194 193 196 197 195 190 194 193 189 193 204 205 211 204 206 207 206 205 208 204 204 202 203 203 200
215 177 184 198 195 196 205 215 209 199 215 211 209 205 228 255 259 248 260 156 251 231 196 162 216 277 140 252 237 251 231 231 223 230 238 235 235 233 232 232 231 231 237 240 242 235 231 228 227 227 223 216 216 220 216 210 212 211 208 199 196 198 199 196 194 191 192 200 199 199 201 202 202 208 215 214 212 210 213 202 203 205 203 204 203 203
177 187 196 199 197 193 197 211 210 201 206 228 164 187 199 222 236 241 245 234 259 322 278 267 215 272 275 238 238 249 265 267 238 226 226 223 221 222 224 225 226 227 228 232 233 235 236 238 237 237 233 223 219 218 208 203 205 207 209 201 199 200 200 197 193 190 194 200 202 203 208 207 211 211 216 204 213 209 198 203 206 202 205 203 204 204
189 183 195 193 201 200 208 204 197 205 213 213 180 179 199 200 217 226 221 234 242 310 258 234 271 278 260 260 197 232 248 240 241 246 249 224 216 215 217 218 221 225 227 223 227 233 232 234 237 239 243 242 233 209 201 204 203 203 206 204 199 201 201 202 194 195 198 202 203 205 207 213 217 215 216 199 202 207 199 207 204 204 205 203 203 203
328 208 199 190 193 209 206 201 186 193 220 215 27 328 264 208 198 206 208 200 241 234 245 223 190 249 271 256 243 206 222 237 238 228 240 242 236 229 216 212 218 228 228 223 227 227 224 224 225 225 230 234 232 225 202 202 197 196 197 202 202 207 204 202 202 201 202 203 203 209 210 215 218 211 215 203 209 205 200 211 205 203 201 201 200 202
163 36 1 195 207 208 199 192 189 198 220 94 134 352 334 290 209 189 185 172 203 238 237 214 201 217 277 249 231 198 223 225 213 228 231 231 229 231 217 204 218 224 221 223 232 230 225 217 216 215 217 220 222 220 207 193 189 186 191 198 204 213 210 206 207 202 207 204 203 212 213 214 218 211 208 212 219 210 205 210 209 204 204 198 201 197
218 90 45 272 313 214 183 193 191 200 187 153 157 169 60 326 15 22 287 162 218 243 235 201 202 209 240 276 189 222 227 194 194 207 218 215 214 213 222 223 227 206 206 215 220 228 220 228 231 223 234 233 227 185 198 185 171 180 192 195 212 225 219 216 212 206 210 208 208 213 214 216 218 212 211 215 219 213 215 211 211 209 204 206 200 199
222 215 175 175 351 207 187 178 208 166 157 169 130 149 172 192 142 225 142 221 210 230 199 180 182 237 231 244 304 320 71 23 296 182 82 101 184 205 226 234 226 214 206 206 216 221 223 215 218 224 244 242 219 213 199 193 187 191 196 200 210 230 225 222 216 212 213 210 211 211 214 219 217 214 216 219 221 216 217 213 209 201 212 202 203 204
237 212 201 190 318 239 208 177 156 161 180 166 169 169 175 190 183 210 206 236 261 251 258 348 192 235 262 273 219 245 259 263 270 267 227 224 214 208 202 221 217 196 183 199 213 214 216 211 210 205 196 177 180 178 183 189 186 202 209 212 214 233 228 224 223 221 219 216 214 209 212 219 217 220 218 221 221 217 217 212 215 207 205 205 208 203
213 203 209 172 217 158 207 198 183 176 175 187 169 179 186 183 171 203 196 208 213 230 183 205 325 221 163 221 171 222 209 212 195 199 222 257 342 68 87 71 60 108 174 203 216 217 215 216 183 166 152 136 131 141 182 202 217 212 220 221 231 247 248 226 225 222 222 221 213 208 209 212 211 218 220 224 220 218 216 214 213 212 206 208 208 205
224 252 164 191 173 163 179 197 174 147 177 210 184 173 191 206 173 214 157 197 206 223 217 187 212 191 204 338 338 239 239 224 203 217 220 236 247 235 250 232 213 205 212 212 216 225 228 187 163 148 141 157 174 205 222 231 231 227 233 228 231 235 237 228 234 232 226 229 222 213 212 213 209 210 214 221 218 219 211 211 209 214 213 212 203 203
172 231 146 187 173 172 186 177 178 152 196 179 147 207 206 235 219 38 10 98 62 24 249 191 261 266 307 282 273 285 237 206 206 221 225 219 214 217 228 236 234 224 222 222 215 218 210 156 130 140 158 195 219 240 237 228 215 213 226 231 245 250 249 240 238 233 230 228 219 220 212 208 207 205 207 213 217 215 213 212 215 215 216 209 206 204
185 231 158 152 194 199 185 175 167 188 127 130 207 204 88 27 92 151 226 129 196 232 241 186 230 248 210 279 201 223 208 209 206 209 217 221 210 217 234 247 245 237 226 214 172 114 115 130 146 152 156 185 214 232 255 262 251 223 215 216 232 254 250 259 250 245 234 226 220 221 219 216 208 205 207 207 212 207 206 216 217 217 217 214 208 202
134 266 161 177 178 176 170 132 120 236 249 203 205 149 162 176 237 208 170 228 168 213 243 223 221 243 212 234 11 195 216 210 210 209 218 217 208 214 226 233 241 267 300 59 68 65 67 81 109 151 188 221 229 247 252 263 15 352 320 295 271 261 260 263 266 252 241 220 217 213 218 217 219 212 207 208 208 204 205 210 211 212 216 214 210 205
356 194 168 210 178 152 160 156 202 189 212 208 50 234 352 46 255 172 199 232 191 234 220 249 178 243 212 235 248 272 241 186 186 206 220 215 204 210 218 359 48 59 52 41 54 48 20 9 343 344 0 9 9 10 6 4 360 337 314 322 307 305 295 289 286 292 289 266 235 241 232 231 217 215 210 206 202 209 213 217 214 215 215 216 206 208
358 347 253 155 97 154 196 185 200 183 189 181 170 191 166 207 279 79 331 204 171 208 225 263 256 212 236 197 231 232 248 206 195 205 205 210 211 122 87 108 93 77 75 60 37 36 19 17 9 5 5 355 345 353 2 14 2 340 350 345 333 347 340 337 306 289 264 274 281 261 248 243 236 239 226 215 206 206 214 218 218 216 214 203 213 204
145 182 202 153 158 185 219 153 304 218 192 184 182 200 181 173 187 196 236 130 245 157 216 199 252 248 292 44 339 295 270 240 226 219 193 193 101 101 92 85 110 97 76 80 49 44 20 9 2 354 358 6 22 17 20 6 19 10 6 358 357 8 343 336 323 334 326 319 298 293 288 275 259 240 238 229 222 213 213 210 206 211 205 203 215 198
165 106 180 217 184 199 190 83 13 21 199 208 193 203 177 195 170 204 218 185 149 228 264 270 302 253 236 350 359 359 19 15 24 103 91 83 88 97 99 88 83 99 96 73 61 40 30 5 350 7 36 37 29 21 16 13 19 16 12 12 3 18 359 6 356 355 358 356 1 347 339 337 320 303 277 253 251 233 227 219 212 201 202 210 213 209
75 142 132 257 179 136 25 35 30 41 35 104 190 70 169 193 195 206 215 166 187 164 201 231 243 252 263 18 120 63 61 56 51 53 94 93 90 89 93 95 71 71 80 69 44 38 28 21 23 41 36 45 32 24 19 17 16 11 18 22 15 14 0 358 2 354 5 6 357 350 350 341 334 347 342 340 314 295 271 235 224 217 211 216 212 216
193 194 177 174 227 163 312 8 34 197 108 136 209 212 222 195 205 212 58 59 183 192 209 181 235 245 255 54 106 95 78 73 73 72 77 87 81 82 82 93 91 63 64 66 45 18 14 36 29 47 53 55 38 26 23 26 20 13 15 29 26 15 3 0 352 357 348 2 358 343 2 347 354 1 352 339 335 325 311 296 267 248 222 222 228 222
205 170 171 208 203 188 192 207 217 221 206 188 150 159 200 228 203 117 222 152 239 173 197 210 243 244 23 350 72 101 110 97 97 98 81 80 80 78 75 71 96 145 289 101 68 27 0 357 18 40 51 39 28 23 25 26 21 13 17 19 28 26 11 357 351 345 346 351 3 349 359 347 3 1 349 342 340 330 327 328 320 305 294 254 235 245
180 188 200 202 217 225 221 222 318 86 79 149 212 177 196 200 217 224 117 229 217 112 212 215 230 262 256 166 216 124 97 107 82 62 71 59 46 45 85 123 155 182 220 119 132 64 4 6 9 37 52 38 32 25 30 32 21 21 19 15 13 20 17 358 2 349 3 5 18 13 5 13 21 24 9 1 348 346 348 342 336 345 331 330 321 283
110 197 218 197 229 236 244 233 174 106 126 181 177 209 195 192 198 210 215 222 102 270 252 187 219 228 248 214 182 107 40 43 38 42 54 65 58 78 78 41 316 68 72 66 65 68 36 1 10 36 41 39 33 27 26 21 27 27 25 18 8 7 14 9 15 7 13 29 33 30 12 5 27 28 1 348 347 345 338 335 337 327 323 340 327 313
159 199 213 191 239 251 254 261 265 260 152 159 193 200 200 202 195 204 221 226 196 224 246 77 42 243 257 243 37 266 186 39 317 345 47 38 115 83 88 67 62 93 82 79 75 68 47 28 21 26 28 28 30 32 23 20 12 14 19 22 13 10 9 5 27 20 22 27 32 22 11 5 2 4 8 353 353 346 336 334 330 331 332 328 310 298
37 222 190 166 234 253 256 258 263 264 258 248 195 200 202 197 211 210 223 226 215 229 232 224 197 225 232 230 221 256 266 301 300 333 335 298 212 100 115 100 79 83 84 98 96 86 68 50 40 31 27 22 22 17 14 11 8 5 13 12 9 14 1 15 18 28 22 25 19 11 10 10 10 10 10 16 9 352 343 337 332 334 329 320 307 299
172 241 178 120 267 263 257 248 246 240 247 254 242 229 208 185 205 220 232 246 247 251 244 248 242 251 248 250 261 268 263 285 298 289 270 267 318 77 104 105 88 75 77 99 100 97 83 68 52 44 34 20 15 6 3 355 347 346 9 13 13 13 358 14 18 26 28 21 8 9 10 14 10 7 15 11 10 5 2 349 343 337 326 317 309 304
134 271 70 100 240 264 248 237 231 230 232 238 245 236 231 228 226 202 216 213 220 225 226 238 247 252 262 243 235 258 262 256 250 251 268 267 128 104 115 135 128 129 120 111 106 100 90 82 74 60 43 25 8 356 349 343 326 352 19 12 11 357 353 11 17 26 22 15 10 13 13 10 8 12 5 6 3 359 353 349 349 341 333 328 328 315
160 161 150 148 233 245 256 215 219 222 235 246 232 228 224 225 228 229 228 217 220 206 223 223 234 234 242 251 215 240 239 237 237 240 240 243 211 151 164 169 182 177 154 138 134 128 123 120 118 116 106 83 6 349 337 327 343 3 2 10 351 355 357 1 14 20 17 8 13 11 8 6 9 6 4 1 355 353 355 355 351 346 344 332 310 317
158 165 197 157 222 260 255 210 196 224 232 239 190 211 207 221 219 226 231 227 227 206 228 222 238 235 237 244 237 245 251 234 229 234 225 226 252 184 168 178 166 195 142 120 121 123 129 126 126 137 145 156 176 158 273 359 12 352 347 351 348 2 349 7 13 27 11 6 10 8 5 3 4 2 357 353 353 355 357 359 351 340 330 326 328 329
174 174 214 197 185 239 266 117 246 235 241 217 167 199 201 215 219 224 232 232 231 227 230 236 239 235 232 232 237 247 256 256 224 219 184 190 181 170 173 165 161 156 130 119 105 97 103 109 105 106 135 167 144 133 77 36 37 359 354 351 4 353 359 3 28 24 17 11 3 4 3 3 3 359 352 352 351 354 356 352 343 344 338 337 331 329
174 180 177 218 194 289 301 190 246 223 176 1 318 275 222 210 212 221 235 233 230 226 224 231 238 243 246 248 249 247 255 146 87 53 55 35 136 155 144 151 145 133 128 127 125 124 125 131 140 152 167 56 55 19 31 18 14 34 355 360 26 359 359 6 17 10 8 8 7 6 1 0 358 355 351 348 350 351 348 347 344 337 335 334 327 310
170 159 167 223 180 220 216 236 239 306 307 273 273 240 186 196 195 201 226 236 229 227 222 226 230 235 238 239 244 250 106 92 95 63 13 46 82 117 133 128 127 122 120 125 127 126 128 126 109 86 69 60 67 39 18 350 6 13 12 32 15 21 19 40 26 10 2 358 354 358 356 358 353 351 349 346 346 345 343 341 335 333 336 330 323 321
179 181 174 197 215 185 234 260 271 234 237 255 233 241 205 212 204 197 205 269 241 218 212 219 228 233 234 237 231 143 132 92 147 233 24 50 106 103 87 97 92 92 92 101 101 107 115 119 94 76 109 89 72 43 14 338 4 25 42 36 13 22 24 40 25 17 14 1 349 351 348 348 350 346 343 344 343 337 331 326 314 317 330 325 321 320
217 200 183 192 223 196 206 233 240 240 243 238 256 235 205 181 170 133 170 245 245 235 207 209 222 229 229 216 170 149 144 190 210 202 164 129 106 109 112 108 111 114 117 121 131 129 126 140 130 110 82 95 64 2 358 356 29 50 56 41 22 32 39 25 13 3 356 347 343 343 341 335 339 338 334 333 330 334 331 331 329 319 322 315 311 303
202 200 195 220 220 223 234 237 236 211 249 256 240 236 185 167 132 114 218 257 248 248 197 218 226 232 226 177 164 170 174 206 207 171 179 145 134 123 122 128 121 120 120 119 122 142 131 104 75 64 77 76 53 1 357 9 33 22 26 20 55 39 25 2 353 326 324 332 344 342 322 311 325 319 323 318 317 317 311 309 321 322 325 322 323 319
194 206 201 218 222 227 224 239 258 270 258 259 187 98 138 132 135 180 214 235 38 359 290 222 219 220 186 168 165 182 227 226 143 144 141 132 107 106 111 126 140 139 137 130 133 111 80 63 77 72 63 70 60 27 13 63 48 20 14 11 17 5 346 337 336 338 337 343 339 330 318 296 266 276 284 285 290 303 309 311 308 309 312 310 315 318
208 207 223 215 226 228 226 234 244 268 244 155 257 156 143 122 193 213 223 277 92 60 8 77 106 119 135 141 129 102 97 106 112 120 129 130 130 131 125 122 114 102 107 122 119 95 59 41 27 25 19 1 12 356 28 66 51 27 26 23 0 321 309 340 334 339 349 340 329 324 320 315 305 278 251 241 241 267 284 288 294 295 297 301 304 304
181 174 194 202 215 226 224 237 243 245 256 137 112 48 251 201 238 135 138 26 49 52 67 34 65 80 100 91 100 111 108 104 114 118 113 110 108 116 114 111 108 112 93 57 29 31 61 21 7 1 354 345 353 351 355 29 14 3 8 3 321 306 333 331 338 339 336 327 320 316 311 309 306 305 305 296 269 242 242 249 262 267 270 280 287 288
154 166 191 219 182 202 211 216 223 228 154 176 145 189 180 212 163 150 128 111 50 66 63 82 48 69 95 109 112 104 102 106 99 106 103 104 94 83 85 84 85 60 56 41 99 72 76 22 358 346 337 343 340 344 343 9 2 355 3 326 295 323 325 329 324 331 324 312 308 303 302 295 293 287 290 290 294 295 286 278 255 241 236 242 251 261
186 193 170 193 170 190 208 221 213 211 170 223 147 247 154 134 136 157 121 132 135 108 114 88 95 73 91 110 115 123 120 131 149 152 143 165 158 157 153 156 153 161 173 181 273 280 87 303 326 334 332 326 331 329 332 343 7 352 343 310 326 329 323 318 320 312 303 297 291 291 285 287 281 278 274 272 272 281 284 288 289 289 270 245 252 246
340 298 3 99 255 227 281 189 176 260 218 200 30 354 122 95 72 90 104 108 92 124 125 123 119 112 93 107 115 103 121 138 122 117 115 122 134 159 141 135 136 188 175 159 312 307 268 341 349 347 326 318 311 317 325 337 360 348 306 309 321 317 320 320 320 313 305 297 288 284 284 286 281 266 261 260 250 248 253 256 267 271 282 282 276 276
243 174 109 178 218 143 241 194 182 211 205 168 110 41 60 108 111 107 112 101 129 130 115 101 123 119 128 116 120 127 126 125 134 158 151 150 147 173 158 169 206 195 196 209 230 214 269 236 331 316 315 316 308 314 315 324 322 297 301 316 309 313 312 316 313 310 311 314 312 306 301 295 293 289 277 267 260 249 249 248 246 255 265 262 268 277
285 183 146 225 212 192 237 250 253 224 194 170 154 142 129 115 111 118 135 141 135 128 118 125 111 106 100 105 116 122 136 139 150 159 151 160 176 174 180 194 212 239 245 217 228 207 186 226 260 280 291 297 297 309 309 314 308 296 296 294 301 303 311 312 312 311 312 313 311 306 306 301 296 296 294 282 270 278 278 254 244 254 255 261 255 268
183 124 214 182 202 263 287 347 65 66 74 122 121 164 149 140 130 118 114 114 119 111 106 107 123 137 122 142 140 129 133 175 158 165 142 177 186 196 208 214 219 215 227 248 262 232 226 230 247 263 292 292 294 304 312 311 310 311 313 307 311 317 318 313 312 313 310 313 315 310 311 304 300 296 296 299 293 268 256 274 275 261 267 247 218 227
111 198 207 109 219 240 228 221 126 108 237 224 180 183 140 120 109 110 118 119 122 122 118 119 130 138 148 153 148 150 149 160 169 139 177 189 194 211 221 222 229 235 253 252 250 259 257 264 260 285 288 287 288 294 295 300 302 303 303 307 310 321 317 312 312 310 304 306 305 302 306 307 304 304 302 300 299 299 290 252 244 255 259 276 251 221
183 190 143 180 186 249 279 186 185 159 130 193 177 146 148 144 138 141 144 139 140 145 145 139 151 137 167 187 154 142 160 155 187 172 175 187 214 208 202 202 217 237 243 256 246 275 243 247 256 263 276 276 283 282 280 280 280 284 290 296 308 317 308 308 306 302 300 304 302 301 301 300 298 298 295 291 293 296 296 303 286 243 249 256 261 259